Location: Hiram
(41.3130°N, 81.1440°W)
Time: 11:49:39
(UTC-05:00)

Daily predictions for brighter satellites

Satellite Brightness Start Highest point End
(mag) Time Altitude Azimuth Time Altitude Azimuth Time Altitude Azimuth
Cosmos 2219 3.4 17:18:21 10° NNW 17:23:59 78° WSW 17:29:35 10° SSE
Cosmos 1544 Rocket 3.8 17:22:49 10° N 17:27:00 44° ENE 17:31:08 10° SSE
Ariane Rocket 3.2 17:24:21 10° SE 17:29:12 51° ENE 17:34:06 10° N
Cosmos 1271 Rocket 2.8 17:26:35 10° N 17:30:19 52° ENE 17:34:03 10° SSE
USA 161 2.7 17:30:16 10° N 17:33:05 44° WNW 17:35:58 10° SSW
YAOGAN 1 3.5 17:29:40 10° SE 17:33:15 26° ENE 17:36:51 10° NNE
Meteor 1-12 Rocket 4.3 17:28:43 10° N 17:34:27 89° E 17:40:14 10° S
Cosmos 1980 Rocket 3.9 17:32:34 10° ESE 17:34:58 13° E 17:37:22 10° ENE
Cosmos 1428 Rocket 4.5 17:30:54 10° N 17:37:06 83° E 17:43:12 10° S
AQUARIUS 4.2 17:33:46 10° SSE 17:38:09 56° ENE 17:42:33 10° N
USA 238 DEB 3.8 17:31:11 10° NNW 17:38:17 67° NE 17:45:26 10° SE
USA 238 3.8 17:31:18 10° NNW 17:38:23 67° NE 17:45:32 10° SE
Cosmos 1937 Rocket 4.3 17:34:09 10° SW 17:39:10 50° WNW 17:44:12 10° N
Cosmos 1125 Rocket 4.0 17:35:59 10° S 17:40:57 43° ESE 17:45:56 10° NNE
Atlas Centaur 2 4.1 17:38:59 10° WSW 17:43:31 23° SSW 17:47:20 10° SE
Okean 1 4.5 17:39:56 10° SSW 17:43:45 45° WNW 17:47:34 10° N
Cosmos 2297 Rocket 2.4 17:38:14 10° NNW 17:43:45 51° ENE 17:49:13 10° SE
Cosmos 389 Rocket 2.9 17:43:29 10° NNW 17:46:57 66° W 17:50:21 10° S
Cosmos 1484 Rocket 2.8 17:43:34 10° SSE 17:47:34 81° ENE 17:51:36 10° N
COSMO-SKYMED 1 3.6 17:45:26 10° NE 17:49:06 26° E 17:52:45 10° SSE
Cosmos 1656 4.0 17:44:06 10° S 17:49:23 46° ESE 17:54:40 10° NE
Cosmos 1048 Rocket 4.3 17:44:14 10° N 17:49:25 46° ENE 17:54:33 10° SE
Cosmos 1666 2.6 17:45:44 10° N 17:49:29 84° E 17:53:13 10° S
CZ-2C R/B 4.1 17:45:56 10° NNE 17:50:29 48° E 17:55:04 10° S
IRS-1A Rocket 4.4 17:45:49 10° SE 17:51:11 52° ENE 17:56:32 10° N
SJ 16-02 1.6 17:49:07 10° S 17:53:21 49° ESE 17:57:36 10° NNE
Cosmos 2279 Rocket 4.3 17:48:19 10° SSW 17:54:33 71° W 18:00:49 10° N
Cosmos 1975 Rocket 4.5 17:51:34 10° SSW 17:55:47 41° WNW 18:00:03 10° N
Cosmos 372 Rocket 4.1 17:52:24 10° S 17:57:29 58° ESE 18:02:34 10° NNE
Cosmos 724 4.2 17:55:38 10° NNW 18:01:24 63° NE 18:07:09 10° SE
SMAP 3.2 17:58:08 10° S 18:02:47 79° WSW 18:07:27 10° NNW
NOSS 3-2 (A) 4.0 17:59:39 10° NNW 18:07:06 63° NE 18:15:13 10° SE
Meteor 2-4 Rocket 3.5 18:02:04 10° S 18:07:30 77° E 18:12:52 10° NNE
RESURS DK-1 4.4 18:07:24 10° SE 18:08:21 12° ESE 18:08:21 12° ESE
MTI 4.2 18:07:57 18° NE 18:10:03 41° E 18:13:08 10° S
NOAA 12 4.5 18:09:01 10° SE 18:13:52 39° ENE 18:18:43 10° N
NOSS 3-2 (C) 4.1 18:07:22 10° NNW 18:14:43 55° NE 18:22:43 10° SE
BREEZE-M DEB (TANK) 3.2 18:12:43 10° WNW 18:15:36 62° SSW 18:24:26 10° SE
DELTA 2 R/B (1) 3.7 18:10:21 10° W 18:15:55 75° S 18:20:00 19° E
ALOS 2.6 18:12:36 10° SE 18:16:58 41° ENE 18:21:21 10° N
Cosmos 1025 Rocket 3.5 18:13:49 10° SSE 18:17:44 36° E 18:19:59 21° NE
Cosmos 2369 3.7 18:13:03 10° SSW 18:18:44 86° WNW 18:24:29 10° NNE
Cosmos 2278 3.7 18:13:38 10° SSW 18:19:19 90° WNW 18:24:58 10° NNE
ATLAS 2AS CENTAUR R/B 3.8 18:13:26 10° WSW 18:21:00 50° NW 18:28:54 10° NNE
ATLAS 3B R/B 2.9 18:14:39 10° NW 18:21:15 70° WSW 18:27:41 10° SSE
FENGYUN 3A 3.8 18:17:49 10° SE 18:22:58 49° ENE 18:28:07 10° N
Cosmos 1536 Rocket 3.9 18:19:37 10° SSW 18:23:56 66° W 18:28:16 10° N
METEOR-M 4.0 18:18:55 10° SSE 18:24:15 82° ENE 18:29:37 10° NNW
Meteor 1-28 Rocket 4.2 18:21:25 10° N 18:25:03 47° WNW 18:28:40 10° SSW
CZ-4 R/B 2.1 18:21:50 10° S 18:25:37 55° W 18:29:30 10° NNW
Cosmos 1241 Rocket 4.5 18:19:45 10° SSW 18:26:02 64° ESE 18:30:28 20° NE
Cosmos 158 Rocket 4.4 18:22:16 10° NNW 18:27:16 61° WSW 18:32:07 10° S
USA 215 3.9 18:24:43 10° SSE 18:31:08 58° SW 18:37:35 10° NW
Cosmos 2084 3.7 18:27:48 10° SSW 18:31:49 45° ESE 18:32:46 38° E
Meteor 1-15 Rocket 4.2 18:28:37 10° N 18:34:34 75° E 18:40:27 10° SSE
EO 1 Del DPAF 3.1 18:33:38 27° NNE 18:35:35 68° E 18:39:23 10° S
Nadezhda 2 Rocket 4.5 18:29:31 10° N 18:35:49 65° E 18:42:10 10° SSE
Cosmos 1697 Rocket 2.6 18:31:29 10° SSW 18:37:07 78° ESE 18:41:05 20° NNE
SKYMED 2 3.5 18:33:13 12° NNE 18:37:19 90° ENE 18:41:39 10° SSW
Cosmos 1515 3.5 18:34:18 10° S 18:38:04 76° E 18:39:54 29° NNE
NOSS 3-4 (A) 3.4 18:35:55 10° SSW 18:42:07 76° ESE 18:45:48 27° NE
NOSS 3-4 (C) 3.4 18:36:01 10° SSW 18:42:13 75° ESE 18:45:51 27° NE
DMSP B5D1-3 4.5 18:40:40 21° NNE 18:44:05 61° ESE 18:49:07 10° S
Okean 2 3.2 18:42:15 10° S 18:46:20 79° E 18:48:05 33° NNE
Abrixas rocket 4.0 18:45:19 10° NW 18:47:23 21° NNW 18:47:23 21° NNW
PSLV R/B 3.4 18:48:29 10° W 18:51:14 64° W 18:51:14 64° W
ISS -0.7 18:52:50 10° W 18:54:46 15° SW 18:56:41 10° SSW
Gbstr 26 Del rocket 4.4 18:47:10 10° WSW 18:55:13 79° NW 18:58:45 34° NE
ERS-2 2.6 18:52:38 10° S 18:56:15 60° WSW 18:59:54 10° NNW
SPOT 3 Rocket 3.6 18:54:19 10° S 18:59:29 77° WSW 19:04:41 10° NNW
BREEZE-M DEB (TANK) 3.9 18:57:03 10° NW 19:00:18 76° NNE 19:02:42 38° ESE
Cosmos 2227 Rocket 4.0 18:56:01 10° NW 19:00:58 32° WSW 19:05:53 10° SSW
CENTAUR R/B 3.2 18:54:08 10° NNW 19:01:45 50° NE 19:04:35 37° E
FengYun 1-2 T 4.2 18:56:55 10° SSE 19:02:23 58° ENE 19:07:56 10° N
NOSS 2-2 (E) 4.2 19:02:23 10° SSW 19:05:01 38° S 19:05:01 38° S
Thor Agena Rocket 4.1 19:12:21 43° SE 19:12:21 43° SE 19:16:16 10° S
Cosmos 2251 Rocket 3.9 19:09:43 10° NNW 19:13:36 46° NNE 19:13:36 46° NNE
S3M 3.8 19:10:43 10° S 19:16:43 62° E 19:17:04 61° ENE
Cosmos 1980 Rocket 2.1 19:12:27 10° SSW 19:18:07 84° WNW 19:19:35 52° NNE
Cosmos 494 Rocket 4.0 19:13:35 10° NNW 19:18:53 81° WSW 19:23:06 16° SSE
Cosmos 1066 Rocket 4.0 19:13:34 10° S 19:19:06 80° E 19:19:39 71° NE
COSMO-SKYMED 1 4.5 19:21:49 12° NNW 19:25:12 27° WNW 19:28:52 10° SW
SJ 16-02 4.0 19:29:31 10° W 19:32:14 16° WNW 19:35:00 10° NNW
Gblst 52 Del rocket 4.3 19:26:38 10° WNW 19:32:23 79° SW 19:33:02 70° SSE
Cosmos 2344 4.0 19:34:51 10° S 19:40:34 43° SSE 19:40:34 43° SSE
RESURS DK-1 4.4 19:42:34 10° SW 19:44:18 24° SW 19:44:18 24° SW
Cosmos 1553 Rocket 4.3 19:43:57 10° SSW 19:50:18 65° W 19:52:38 40° NNW
SL-16 R/B 4.0 19:53:46 10° SSW 19:55:26 20° SSW 19:55:26 20° SSW
Cosmos 2322 Rocket 4.2 19:58:53 10° SSW 20:00:14 18° SSW 20:00:14 18° SSW
CENTAUR R/B 3.9 20:45:01 10° NW 20:51:51 45° WSW 20:51:51 45° WSW
